Weather History for 91554 - September, 2013

Change the Weather History Date:

Tuesday, September 10, 2013

  Actual Average Record
Temperature  
Mean Temperature 78 °F -  
Max Temperature 84 °F - - ()
Min Temperature 73 °F - - ()
Cooling Degree Days 14    
Growing Degree Days 28 (Base 50)    
Moisture  
Dew Point 72 °F    
Average Humidity 78    
Maximum Humidity 89    
Minimum Humidity 68    
Precipitation  
Precipitation 0.00 in - - ()
Sea Level Pressure  
Sea Level Pressure 29.95 in    
Wind  
Wind Speed 10 mph ()    
Max Wind Speed 18 mph    
Max Gust Speed -    
Visibility 8.6 miles    
Events Rain    
T = Trace of Precipitation, MM = Missing Value Source: Averaged Metar Reports

Daily Weather History Graph

Daily Weather History Graph

Search for Another Location

Airport or City:

Trip Planner

Search our weather history database for the weather conditions in past years. The results will help you decide how hot, cold, wet, or windy it might be!

Date:

Astronomy

Sep. 10, 2013 Rise Set
Actual Time 5:50 AM VUT 5:46 PM VUT
Civil Twilight 5:28 AM VUT 6:07 PM VUT
Nautical Twilight 5:04 AM VUT 6:32 PM VUT
Astronomical Twilight 4:39 AM VUT 6:57 PM VUT
Moon 8:54 AM VUT (9/10) 9:57 PM VUT (9/10)
Length of Visible Light 12h 38m
Length of Day
11h 55m
Waxing Crescent, 22% of the Moon is Illuminated
Sep 10
Waxing Crescent
Sep 13
First Quarter
Sep 19
Full
Sep 27
Last Quarter
Oct 5
New

Hourly Weather History & Observations

Time (VUT) Temp. Heat Index Dew Point Humidity Pressure Visibility Wind Dir Wind Speed Gust Speed Precip Events Conditions
2:00 AM 75 °F - 72 °F 89% 29.94 in 12 mi NNE 4.6 mph - -   Partly Cloudy
5:00 AM 75 °F - 72 °F 89% 29.94 in 12 mi NE 3.5 mph - - Rain Light Rain Showers
8:00 AM 79 °F - 71 °F 72% 29.99 in 12 mi ENE 9.2 mph - - Rain Light Rain Showers
8:00 AM 78.8 °F - 69.8 °F 74% 29.98 in 6.2 mi ENE 9.2 mph - N/A   Mostly Cloudy
9:00 AM 77.0 °F - 69.8 °F 78% 29.98 in 6.2 mi ENE 15.0 mph - N/A   Mostly Cloudy
10:00 AM 80.6 °F 84.6 °F 71.6 °F 74% 29.98 in 6.2 mi ENE 12.7 mph - N/A   Mostly Cloudy
11:00 AM 81 °F - 75 °F 77% 29.97 in 12 mi East 16.1 mph - -   Partly Cloudy
11:00 AM 80.6 °F 85.4 °F 73.4 °F 79% 29.95 in 6.2 mi East 16.1 mph - N/A   Mostly Cloudy
12:00 PM 80.6 °F 84.6 °F 71.6 °F 74% 29.95 in 6.2 mi ENE 13.8 mph - N/A   Mostly Cloudy
2:00 PM 82 °F - 73 °F 68% 29.92 in 12 mi East 18.4 mph - -   Partly Cloudy
2:00 PM 80.6 °F 84.6 °F 71.6 °F 74% 29.92 in 6.2 mi East 18.4 mph - N/A   Mostly Cloudy
3:00 PM 80.6 °F 84.6 °F 71.6 °F 74% 29.89 in 6.2 mi East 15.0 mph - N/A   Mostly Cloudy
4:00 PM 80.6 °F 85.4 °F 73.4 °F 79% 29.89 in 6.2 mi East 11.5 mph - N/A   Mostly Cloudy
5:00 PM 78 °F - 72 °F 77% 29.92 in 12 mi East 11.5 mph - -   Partly Cloudy
5:00 PM 77.0 °F - 71.6 °F 83% 29.92 in 6.2 mi East 11.5 mph - N/A   Mostly Cloudy
8:00 PM 78 °F - 71 °F 74% 29.96 in 12 mi ENE 9.2 mph - -   Partly Cloudy
8:00 PM 77.0 °F - 69.8 °F 78% 29.95 in 6.2 mi ENE 9.2 mph - N/A   Overcast
11:00 PM 78 °F - 74 °F 84% 29.99 in 12 mi NE 15.0 mph - -   Partly Cloudy
11:00 PM 77.0 °F - 73.4 °F 89% 29.98 in 6.2 mi NE 15.0 mph - N/A   Overcast